This demonstration page uses our WeatherBlox Daily Observations layout. Learn more.

Left ArrowRight Arrow

Hourly Observations for November 9, 2015

Temp ( °F °C ) Dew Point ( °F °C ) Humidity (%) Winds ( mph kmh ) Pressure ( in mb ) Visibility ( mi km ) Precip ( " mm )
12:51 am 00:51 Clear 52 11.1 38 3.3 59 59 ESE 7 11 29.96 1015 10 16.0934 N/A
1:51 am 01:51 Clear 53 11.7 38 3.3 57 57 SE 8 13 29.96 1015 10 16.0934 N/A
2:51 am 02:51 Clear 51 10.6 38 3.3 61 61 ESE 8 13 29.93 1014 10 16.0934 N/A
3:51 am 03:51 Clear 52 11.1 38 3.3 59 59 ESE 8 13 29.93 1014 10 16.0934 N/A
4:51 am 04:51 Clear 52 11.1 38 3.3 59 59 ESE 12 19 29.94 1014 10 16.0934 N/A
5:51 am 05:51 Clear 51 10.6 37 2.8 59 59 ESE 12 19 29.96 1015 10 16.0934 N/A
6:51 am 06:51 Sunny 51 10.6 37 2.8 59 59 SE 14 22 29.99 1016 10 16.0934 N/A
7:51 am 07:51 Sunny 53 11.7 37 2.8 55 55 SE 16 26 30.01 1016 10 16.0934 N/A
8:51 am 08:51 Sunny 57 13.9 38 3.3 49 49 ESE 14 22 30.01 1016 10 16.0934 N/A
9:51 am 09:51 Sunny 63 17.2 38 3.3 40 40 ESE 12 19 30 1016 10 16.0934 N/A
10:51 am 10:51 Sunny 65 18.3 39 3.9 39 39 E 6 9 29.98 1015 10 16.0934 N/A
11:51 am 11:51 Sunny 67 19.4 39 3.9 36 36 N N/A 29.95 1014 10 16.0934 N/A
12:51 pm 12:51 Sunny 70 21.1 36 2.2 29 29 SE 6 9 29.91 1013 10 16.0934 N/A
1:51 pm 13:51 Sunny 73 22.8 34 1.1 24 24 W 5 7 29.87 1012 10 16.0934 N/A
2:51 pm 14:51 Sunny 74 23.3 32 undefined 21 21 WNW 5 7 29.86 1011 10 16.0934 N/A
3:51 pm 15:51 Sunny 76 24.4 29 -1.7 18 18 N N/A 29.84 1011 10 16.0934 N/A
4:51 pm 16:51 Sunny 73 22.8 29 -1.7 19 19 NW 3 6 29.84 1010 10 16.0934 N/A
5:51 pm 17:51 Clear 64 17.8 33 0.6 32 32 W 6 9 29.86 1011 10 16.0934 N/A
6:51 pm 18:51 Clear 60 15.6 32 undefined 35 35 WNW 8 13 29.89 1012 10 16.0934 N/A
7:51 pm 19:51 Clear 55 12.8 35 1.7 47 47 WNW 8 13 29.91 1013 10 16.0934 N/A
8:51 pm 20:51 Clear 52 11.1 34 1.1 50 50 SE 3 6 29.92 1013 10 16.0934 N/A
9:51 pm 21:51 Clear 50 10 33 0.6 52 52 E 6 9 29.93 1014 10 16.0934 N/A
10:51 pm 22:51 Clear 50 10 32 undefined 50 50 E 6 9 29.93 1014 10 16.0934 N/A
11:51 pm 23:51 Clear 48 8.9 32 undefined 54 54 ENE 5 7 29.93 1013 10 16.0934 N/A

Powered by AerisWeather